User: anonymous   Login
Location: Chinna Viriv?da
(16.5281°N, 81.0493°E)
Time: 19:16:46
(UTC+00:00)
Language:

CSL-04 Debris - Orbit

View from above orbital plane
View from above orbital plane
View from above satellite
View from above satellite

Ground track
Ground track

The orbit is defined by the following mean orbital elements,

1 25733U          26162.56912620 +.00000000 +00000-0 +19237-3 0 00006
2 25733  98.6811 206.1632 0014281 190.2952 169.7934 14.18937320    06
Epoch (UTC): 11 June 2026 13:39:32
Eccentricity: 0.0014281
inclination: 98.6811°
perigee height: 819 km
apogee height: 839 km
right ascension of ascending node: 206.1632°
argument of perigee: 190.2952°
revolutions per day: 14.18937320
mean anomaly at epoch: 169.7934°

The dashed part of the orbit path shows where the satellite is in the earth's shadow,  

DLR